Temp
79 74 71 71 72 71 69 67 65 70 74 68 68 70 75 79 81 80 80 79 77 78 79 79 79 80 80 78 77 75 75 74 77 80 80 86 87 86 83 85 89 89 87 84
74 70 75 75 73 69 68 66 66 70 71 69 68 68 74 77 78 78 76 77 76 77 78 77 79 78 78 77 76 75 74 73 76 79 79 79 85 89 90 89 88 88 88 84
69 74 74 71 70 67 68 64 63 63 67 70 68 66 71 74 75 76 77 77 77 76 76 76 77 77 78 76 76 75 73 73 74 73 80 80 81 83 85 88 89 88 87 84
71 74 70 69 68 67 61 68 64 62 61 56 69 53 67 70 70 73 75 75 76 76 76 77 77 77 76 77 78 76 74 73 75 73 74 72 76 77 84 87 89 89 86 85
67 68 67 66 66 67 63 66 64 63 59 59 61 55 65 67 65 70 73 74 76 78 77 77 77 77 78 78 78 77 74 73 72 72 71 73 74 78 82 84 83 84 86 85
70 74 70 68 67 66 67 65 65 65 60 50 60 56 59 66 66 69 72 74 75 77 77 78 78 78 79 79 78 76 74 71 72 72 71 70 69 71 74 77 81 85 87 88
66 66 69 69 64 69 66 60 47 48 47 49 59 53 58 67 70 71 71 74 76 77 78 78 77 78 76 76 75 75 73 70 71 70 71 70 69 70 70 75 79 80 84 87
56 55 63 67 65 60 61 58 47 35 43 50 60 51 61 68 71 72 73 73 74 75 78 77 77 76 76 74 73 73 72 70 70 69 69 69 70 73 75 76 79 81 84 86
53 55 67 68 69 65 59 52 60 46 50 46 55 62 66 68 68 71 72 72 72 74 73 74 75 74 73 72 72 71 71 70 70 67 68 68 69 69 70 70 74 79 80 83
59 47 62 63 66 67 61 65 48 47 32 38 52 54 56 62 63 67 67 68 71 72 73 74 74 72 72 73 72 72 71 70 69 69 69 69 68 69 70 71 72 76 78 80
62 51 55 62 59 59 59 54 55 53 50 38 40 50 66 63 66 65 67 67 66 69 71 72 73 73 73 73 73 70 70 69 69 68 68 67 68 68 69 70 72 76 78 79
61 55 48 54 65 67 62 57 57 42 43 49 45 44 67 67 61 61 65 63 64 69 70 71 72 72 70 69 69 68 67 67 68 68 67 67 67 68 67 69 71 75 75 78
60 48 38 50 58 59 56 59 57 55 53 41 36 44 66 65 56 63 64 61 65 67 68 69 70 69 68 67 66 66 66 66 66 66 66 66 66 66 66 68 69 74 74 74
58 53 48 42 50 56 51 54 57 52 37 42 45 49 58 59 59 61 63 60 61 64 65 67 66 67 67 66 65 64 64 64 63 64 64 64 65 65 66 67 69 73 76 77
57 48 53 55 56 55 54 54 55 52 53 41 47 48 52 58 58 57 56 57 59 62 63 64 64 64 65 63 63 62 60 58 58 58 59 61 63 66 66 67 68 74 76 78
58 47 51 48 55 56 52 54 55 54 53 52 51 50 59 62 64 55 54 56 60 61 62 63 63 62 61 59 58 56 54 54 55 55 55 58 61 65 66 67 68 73 75 76
52 51 47 41 53 52 43 50 52 52 53 48 38 52 59 55 52 51 54 57 59 61 61 61 59 58 56 54 54 51 52 53 52 53 54 56 60 65 66 68 64 71 73 74
51 47 45 42 47 34 54 59 55 50 51 54 53 53 51 51 51 54 55 56 56 59 58 55 54 52 53 53 52 52 52 51 51 51 54 56 61 65 66 67 62 67 68 67
56 51 42 38 40 47 52 51 38 38 40 53 48 48 48 47 47 49 58 56 56 55 54 52 52 52 51 51 52 51 49 49 49 51 54 56 61 65 66 64 62 65 62 60
55 54 44 43 34 31 48 54 57 54 36 50 48 42 43 48 34 42 56 55 52 51 51 50 51 53 51 51 50 48 47 47 47 51 55 57 62 64 65 59 60 57 56 55
48 47 43 43 39 45 54 56 56 34 36 48 46 45 43 38 43 50 53 51 51 50 48 49 49 48 47 48 47 45 46 45 50 55 56 57 63 63 65 56 56 54 52 51
43 38 38 41 37 34 57 52 35 42 43 45 44 45 45 48 48 50 50 48 45 46 48 48 44 43 45 45 45 43 43 48 55 55 55 57 63 65 64 53 52 51 50 48
40 47 38 40 43 54 53 47 49 50 48 46 42 50 48 46 46 46 41 43 44 45 44 44 43 42 43 43 44 42 45 50 55 55 55 58 63 66 55 51 49 48 48 48
51 55 41 43 51 52 52 55 56 54 51 53 51 48 47 42 42 40 41 40 40 41 41 43 41 40 40 42 44 45 47 50 52 53 56 58 62 57 53 51 50 48 48 47
52 50 44 44 49 47 50 52 56 55 54 51 50 47 43 41 40 40 39 39 40 40 41 41 40 40 41 43 44 47 48 50 49 52 56 58 57 52 48 47 49 49 51 50
51 44 38 36 42 41 45 54 57 52 50 48 46 42 42 41 40 40 39 39 39 39 40 40 40 41 43 44 45 47 49 50 50 54 56 57 50 47 46 45 43 39 41 41
MSLP
1010.77 1010.17 1009.43 1010.17 1010.60 1010.81 1010.78 1010.48 1010.13 1009.94 1010.37 1010.73 1009.80 1009.17 1008.53 1008.16 1007.89 1007.70 1007.99 1008.45 1009.54 1010.21 1011.03 1011.54 1011.97 1012.17 1012.27 1012.54 1012.60 1012.51 1012.13 1011.89 1011.08 1010.06 1009.44 1008.22 1007.70 1007.96 1008.34 1008.39 1007.81 1007.98 1008.76 1009.25
1010.64 1009.47 1010.03 1010.66 1010.96 1011.11 1010.93 1010.58 1010.16 1010.27 1010.63 1010.75 1009.78 1008.76 1008.16 1007.84 1007.64 1007.87 1008.43 1008.60 1009.41 1010.13 1010.69 1011.49 1011.78 1012.05 1012.19 1012.36 1012.52 1012.50 1012.37 1012.17 1011.48 1010.68 1009.87 1009.37 1007.84 1007.19 1007.13 1007.32 1007.33 1007.50 1007.75 1008.50
1010.53 1010.08 1010.91 1011.08 1010.87 1010.93 1010.67 1010.64 1010.87 1011.03 1011.09 1010.61 1009.30 1007.92 1006.71 1007.56 1007.99 1008.12 1008.43 1008.94 1009.39 1009.76 1010.32 1010.95 1011.34 1011.67 1011.87 1012.08 1012.27 1012.34 1012.44 1012.23 1011.71 1011.37 1010.02 1009.14 1008.45 1007.71 1007.14 1006.54 1006.33 1006.77 1007.18 1007.66
1010.64 1010.89 1011.12 1011.04 1010.88 1011.39 1010.96 1011.29 1011.87 1011.78 1011.31 1009.88 1009.65 1007.63 1006.83 1007.04 1007.56 1007.82 1007.98 1008.50 1009.00 1009.59 1010.25 1010.57 1010.92 1011.27 1011.55 1011.85 1011.97 1012.14 1012.30 1012.11 1011.64 1011.49 1010.68 1010.03 1008.82 1007.87 1006.86 1006.27 1005.92 1005.95 1006.87 1007.15
1010.73 1011.20 1011.27 1011.14 1011.29 1012.12 1011.87 1012.51 1012.36 1012.03 1011.45 1010.50 1009.16 1008.90 1006.45 1007.44 1007.52 1007.38 1007.53 1008.21 1008.69 1009.10 1009.64 1010.00 1010.44 1010.98 1011.17 1011.51 1011.63 1011.76 1011.96 1011.92 1011.70 1011.43 1011.14 1010.42 1009.29 1008.41 1007.38 1006.59 1006.06 1005.73 1005.79 1006.39
1011.62 1012.07 1012.16 1011.86 1012.60 1012.84 1013.04 1012.56 1011.90 1011.37 1011.28 1009.86 1008.03 1008.57 1006.85 1006.21 1006.71 1007.13 1007.54 1007.96 1008.38 1008.86 1009.40 1009.82 1010.25 1010.57 1010.59 1011.02 1011.23 1011.36 1011.43 1011.55 1011.38 1011.20 1010.81 1010.47 1009.81 1008.98 1008.10 1007.14 1006.15 1005.37 1005.12 1005.19
1012.12 1011.91 1012.54 1012.90 1012.49 1012.46 1012.64 1012.44 1011.89 1010.74 1010.23 1009.18 1009.17 1008.99 1007.35 1006.94 1007.12 1007.24 1007.40 1007.67 1008.10 1008.54 1008.86 1009.19 1009.63 1010.10 1010.54 1010.72 1011.11 1011.13 1010.99 1010.91 1010.98 1010.81 1010.68 1010.12 1009.65 1008.92 1008.15 1007.14 1006.08 1005.40 1004.67 1004.30
1012.68 1012.04 1012.66 1013.17 1012.85 1013.07 1013.02 1013.33 1013.03 1012.19 1010.73 1009.54 1009.43 1007.51 1006.53 1007.45 1007.72 1007.86 1007.93 1008.13 1008.41 1008.60 1008.69 1008.97 1009.48 1010.00 1010.33 1010.67 1010.97 1010.97 1010.86 1010.64 1010.53 1010.32 1009.77 1009.44 1009.20 1008.31 1007.61 1006.71 1006.05 1005.28 1004.32 1003.77
1013.92 1012.96 1013.28 1013.32 1013.28 1013.68 1012.86 1013.65 1013.95 1013.81 1012.99 1011.09 1008.59 1006.68 1006.80 1007.07 1007.47 1007.52 1007.83 1008.10 1008.26 1008.28 1009.14 1009.60 1009.69 1010.12 1010.36 1010.62 1010.71 1010.71 1010.53 1010.43 1010.17 1009.82 1009.65 1008.81 1008.58 1008.20 1007.68 1007.11 1006.28 1005.15 1004.49 1003.89
1015.09 1014.66 1013.80 1013.67 1013.89 1013.42 1013.70 1013.84 1014.27 1014.65 1013.55 1010.75 1007.76 1007.00 1006.09 1006.59 1007.07 1007.53 1008.18 1008.28 1008.43 1008.72 1009.11 1009.44 1009.71 1009.98 1010.29 1010.30 1010.36 1010.15 1010.20 1010.01 1009.77 1009.42 1008.98 1008.46 1008.28 1008.00 1007.35 1006.61 1005.75 1004.79 1004.08 1003.76
1015.85 1016.02 1014.36 1013.98 1013.28 1012.65 1013.17 1013.63 1014.03 1014.37 1013.58 1011.89 1009.66 1007.04 1006.83 1007.51 1007.75 1007.83 1008.12 1008.84 1009.40 1009.28 1009.14 1009.61 1009.60 1009.76 1009.79 1009.93 1009.96 1009.80 1009.82 1009.64 1009.31 1009.08 1008.70 1008.29 1007.87 1007.44 1006.84 1006.13 1005.29 1004.23 1003.45 1003.16
1016.25 1016.06 1014.53 1013.67 1013.00 1012.83 1013.31 1013.41 1013.51 1013.55 1012.96 1011.87 1010.81 1008.03 1009.08 1008.29 1008.93 1009.82 1008.94 1010.12 1009.99 1009.77 1009.83 1009.66 1009.43 1009.47 1009.61 1009.70 1009.71 1009.64 1009.62 1009.48 1009.08 1008.72 1008.28 1007.77 1007.31 1006.82 1006.22 1005.49 1004.74 1003.61 1002.93 1002.43
1016.84 1016.71 1015.56 1013.10 1012.66 1013.31 1013.11 1013.02 1013.46 1013.55 1013.27 1011.98 1011.60 1008.79 1009.21 1008.84 1009.84 1009.42 1009.29 1009.78 1010.15 1010.14 1009.97 1009.78 1009.41 1009.31 1009.43 1009.51 1009.52 1009.50 1009.35 1009.10 1008.93 1008.55 1007.97 1007.23 1006.60 1006.19 1005.64 1004.96 1004.32 1003.08 1002.33 1001.85
1017.79 1016.75 1016.03 1014.63 1013.40 1013.57 1013.09 1013.04 1013.03 1012.94 1012.64 1012.11 1011.01 1009.74 1009.26 1009.35 1009.39 1009.93 1009.77 1010.72 1011.13 1010.56 1009.98 1009.56 1009.36 1009.21 1009.18 1009.36 1009.31 1009.20 1009.14 1009.22 1009.05 1008.37 1007.62 1006.80 1006.29 1005.67 1005.18 1004.53 1003.78 1002.42 1001.55 1001.20
1017.42 1016.46 1015.73 1014.75 1014.11 1013.86 1013.02 1012.34 1012.12 1012.16 1011.79 1011.38 1011.05 1010.27 1010.07 1009.86 1010.31 1011.05 1011.59 1011.58 1011.16 1010.24 1009.69 1009.33 1009.23 1009.05 1009.06 1009.11 1009.21 1009.18 1009.33 1009.29 1009.09 1008.40 1007.56 1006.71 1005.92 1005.10 1004.62 1003.93 1003.19 1001.74 1001.25 1000.81
1017.46 1016.67 1015.93 1014.75 1013.97 1013.10 1012.25 1012.16 1011.80 1011.88 1011.79 1011.73 1011.52 1010.72 1010.55 1010.46 1010.48 1011.59 1011.87 1011.39 1010.21 1009.64 1009.29 1009.27 1009.18 1008.95 1008.81 1009.25 1009.29 1009.45 1009.46 1009.16 1008.87 1008.14 1007.42 1006.64 1005.63 1004.60 1004.00 1003.40 1002.58 1001.40 1001.02 1000.82
1017.60 1016.72 1015.99 1014.58 1013.87 1013.20 1012.23 1011.93 1012.26 1012.50 1012.84 1012.78 1012.55 1011.68 1011.31 1011.46 1012.14 1012.29 1011.76 1011.01 1010.10 1009.20 1008.96 1008.99 1009.17 1009.18 1009.34 1009.41 1009.44 1009.34 1009.11 1008.75 1008.25 1007.60 1006.99 1006.24 1005.19 1004.00 1003.44 1002.83 1002.49 1001.26 1000.87 1000.91
1017.21 1017.19 1016.83 1015.31 1014.32 1012.90 1011.47 1012.34 1013.09 1013.45 1013.62 1013.41 1013.03 1012.86 1013.22 1013.40 1012.96 1012.49 1012.32 1010.98 1010.20 1009.54 1009.37 1009.56 1009.59 1009.57 1009.42 1009.23 1009.08 1008.80 1008.60 1008.17 1007.66 1007.15 1006.32 1005.65 1004.55 1003.42 1002.94 1002.44 1002.32 1001.68 1001.44 1001.44
1017.51 1017.24 1016.73 1015.92 1014.48 1013.39 1011.99 1013.31 1014.61 1014.67 1014.00 1013.60 1013.60 1014.29 1014.42 1014.25 1013.38 1012.15 1011.68 1010.99 1010.43 1009.98 1010.03 1009.88 1009.67 1009.15 1008.83 1008.62 1008.32 1008.06 1007.93 1007.57 1007.15 1006.30 1005.51 1004.92 1003.85 1002.97 1002.60 1002.28 1002.17 1001.96 1001.95 1001.96
1017.40 1017.37 1017.10 1016.14 1015.12 1013.60 1013.12 1013.77 1014.67 1014.88 1013.89 1014.25 1014.94 1015.15 1014.55 1013.48 1012.49 1011.01 1011.03 1010.90 1010.40 1010.38 1010.08 1009.66 1009.14 1008.40 1008.02 1007.75 1007.80 1007.41 1007.13 1006.71 1006.13 1005.46 1004.74 1004.24 1003.33 1002.79 1002.42 1002.67 1002.48 1002.62 1002.55 1002.56
1016.74 1016.59 1016.33 1015.50 1014.97 1014.08 1013.77 1014.62 1015.11 1015.29 1015.18 1015.31 1015.60 1014.84 1014.20 1013.60 1013.22 1011.45 1010.98 1010.45 1010.41 1010.01 1009.70 1009.24 1008.66 1008.12 1007.82 1007.49 1007.26 1006.71 1006.34 1005.84 1005.30 1004.46 1004.00 1003.60 1002.73 1002.47 1002.31 1002.78 1002.86 1002.95 1003.03 1003.31
1017.14 1017.32 1016.89 1016.57 1015.60 1014.52 1014.81 1015.31 1016.48 1016.36 1015.77 1015.68 1014.87 1014.50 1013.88 1013.23 1012.18 1011.20 1010.55 1010.30 1010.13 1009.52 1008.80 1008.57 1008.21 1007.63 1007.17 1006.92 1006.65 1006.09 1005.64 1005.04 1004.22 1003.74 1003.33 1002.92 1002.18 1002.07 1002.26 1003.00 1003.32 1003.61 1003.77 1004.01
1017.62 1017.78 1017.95 1017.90 1016.34 1015.77 1016.39 1016.50 1016.40 1015.94 1015.11 1014.79 1014.32 1013.82 1013.57 1012.97 1012.21 1011.71 1011.02 1010.22 1009.55 1008.92 1008.40 1008.04 1007.52 1006.83 1006.40 1006.15 1005.89 1005.32 1004.64 1004.19 1003.35 1002.92 1002.72 1002.36 1001.83 1001.76 1002.85 1003.19 1003.63 1004.14 1004.41 1004.55
1017.43 1017.53 1018.12 1017.71 1016.35 1016.20 1016.28 1016.04 1015.36 1015.03 1014.68 1014.13 1013.99 1013.80 1013.48 1012.94 1012.21 1011.39 1010.82 1010.21 1009.45 1008.70 1007.81 1007.23 1006.58 1005.92 1005.25 1005.07 1004.81 1004.40 1003.90 1003.46 1003.07 1002.54 1002.04 1001.87 1001.67 1002.34 1003.09 1003.47 1003.88 1004.37 1004.69 1005.07
1017.69 1017.94 1017.91 1017.57 1017.08 1016.86 1016.50 1015.89 1014.78 1014.29 1014.26 1014.00 1013.80 1013.71 1013.32 1012.71 1011.88 1011.40 1010.46 1009.65 1008.87 1008.09 1007.23 1006.50 1005.67 1004.84 1004.00 1003.67 1003.30 1003.21 1002.97 1002.72 1002.35 1001.86 1001.40 1001.45 1001.92 1002.86 1003.46 1004.03 1004.49 1004.75 1005.09 1005.38
1017.47 1017.99 1018.27 1017.64 1017.62 1017.22 1016.16 1014.95 1014.22 1014.19 1013.85 1013.93 1013.50 1013.13 1012.91 1012.51 1011.76 1010.92 1009.99 1009.22 1008.33 1007.28 1006.31 1005.34 1004.46 1003.71 1002.71 1002.08 1001.74 1001.68 1001.76 1001.66 1001.48 1001.15 1001.18 1001.52 1002.52 1003.47 1003.81 1004.34 1005.36 1005.91 1006.09 1006.52
Wind_Speed
1 11 4 6 4 7 9 11 12 11 12 11 15 17 17 18 18 14 9 4 5 6 3 4 4 4 6 8 9 12 13 15 12 11 9 9 10 10 10 13 17 15 14 14
9 7 2 4 6 8 11 13 13 12 5 13 18 22 19 14 12 8 6 5 7 6 6 3 2 3 6 8 9 11 13 14 12 11 9 9 11 9 12 13 14 15 16 15
9 13 2 6 10 10 14 11 13 15 16 18 19 20 9 6 7 6 6 4 5 6 5 4 1 2 6 7 8 10 12 13 12 14 10 9 8 10 11 11 12 13 16 14
9 5 5 9 13 6 14 9 7 13 16 16 15 13 15 6 7 10 9 7 8 8 8 5 4 2 4 7 8 9 11 12 12 14 12 13 9 10 11 10 12 11 15 17
3 7 9 11 6 3 12 6 14 16 17 19 18 9 5 6 11 11 6 9 9 8 7 6 4 2 4 6 8 9 11 12 13 12 12 11 11 10 10 11 14 11 11 16
6 3 7 5 0 3 8 14 16 11 9 11 4 7 10 6 6 6 7 7 7 7 8 7 6 6 7 9 10 11 13 14 13 14 13 13 14 12 11 11 13 12 11 12
10 3 3 3 7 6 6 11 6 6 7 11 4 9 15 14 11 11 10 8 7 7 10 10 10 9 10 12 12 13 15 16 16 15 14 13 14 14 14 14 10 13 12 12
7 3 1 3 9 13 13 8 5 7 9 16 18 12 5 4 4 6 6 7 6 9 10 9 10 11 13 12 13 14 16 17 16 17 17 14 14 11 11 13 11 11 12 12
8 4 3 12 14 7 2 7 7 9 16 14 12 13 13 15 12 10 13 8 11 13 7 13 13 11 11 13 15 15 15 16 16 17 15 15 14 14 14 16 15 12 12 13
4 10 11 5 8 12 10 6 6 4 6 14 13 21 16 6 3 7 11 11 13 9 11 13 12 11 11 13 15 15 15 16 16 16 15 13 15 16 15 14 16 16 14 13
8 4 6 9 9 14 7 11 11 10 11 15 19 11 14 15 17 16 10 11 17 16 13 14 14 14 15 15 17 16 16 17 16 15 15 16 16 16 15 15 16 15 15 14
6 7 15 20 19 13 11 15 16 11 18 17 16 22 19 19 17 28 17 18 17 15 15 16 17 17 17 16 17 16 15 16 15 15 16 16 16 16 16 15 16 17 15 14
5 5 8 9 8 5 7 8 11 18 19 23 20 19 17 19 14 18 12 8 14 18 18 19 19 17 17 16 16 16 15 16 16 17 17 17 16 15 16 15 15 17 14 12
8 11 14 14 19 19 21 22 21 21 12 20 22 29 26 24 19 16 17 17 17 20 21 20 20 18 18 17 17 16 16 16 18 18 17 17 16 16 15 15 16 16 12 13
5 13 16 18 20 21 24 23 21 22 24 22 23 25 20 17 15 15 12 16 20 22 22 21 20 20 20 19 18 17 17 17 16 17 17 17 17 16 15 15 15 13 10 10
10 12 14 20 20 19 19 22 24 15 16 18 21 24 18 20 16 15 17 21 23 25 22 20 22 24 23 21 18 17 17 17 17 17 17 17 17 15 14 14 15 12 10 9
13 10 10 15 16 20 19 7 14 18 15 13 12 21 23 19 17 19 22 24 26 23 23 26 26 22 19 19 16 17 18 18 17 17 16 16 17 14 13 13 12 13 10 7
9 8 7 13 18 15 14 13 8 11 15 18 22 19 13 18 23 24 24 24 24 26 28 25 21 19 18 17 18 18 17 17 16 17 16 15 16 13 12 10 10 9 6 6
9 7 8 10 13 19 10 6 1 5 19 25 8 15 23 24 23 23 21 17 25 28 25 21 17 22 18 16 17 17 16 15 16 16 15 14 14 11 10 8 7 5 2 2
7 11 9 14 13 10 13 10 10 22 18 7 21 20 22 24 16 15 25 26 23 19 19 19 23 23 21 18 16 15 16 13 16 15 14 13 12 10 10 7 3 2 4 5
10 11 12 11 14 14 8 16 20 11 9 25 26 24 21 13 15 29 26 23 19 22 20 18 18 19 18 17 14 14 13 15 17 15 12 13 11 8 7 2 5 5 6 7
10 6 8 8 11 7 16 19 2 9 13 21 19 18 20 26 25 29 27 26 23 22 23 20 16 15 16 15 13 14 14 16 16 12 12 12 9 7 3 7 7 7 7 8
5 5 7 7 9 22 18 17 14 18 20 20 17 24 24 25 26 25 22 21 24 24 19 16 15 16 14 14 12 14 14 15 14 12 11 11 7 7 9 8 9 7 6 6
9 9 6 11 9 18 18 16 19 19 21 24 22 22 24 23 23 22 18 19 17 18 18 17 16 15 15 12 12 13 14 14 13 13 13 9 8 7 7 6 7 7 6 7
11 9 7 14 18 15 14 21 22 23 24 23 22 21 20 20 19 20 19 19 17 17 17 15 15 15 16 14 14 14 14 13 12 15 9 7 7 8 7 6 5 5 5 6
4 6 3 5 11 15 17 22 22 23 24 20 21 19 18 17 20 21 18 17 17 17 17 17 16 15 16 14 13 13 11 12 11 9 7 6 7 6 7 8 9 21 15 15
Wind_Direction
75 286 324 351 319 322 308 297 290 297 330 294 293 293 290 295 295 287 284 280 213 243 149 116 79 52 44 35 22 15 9 7 0 352 318 259 243 233 227 242 240 220 214 225
235 257 349 300 282 276 293 289 287 310 274 308 299 295 290 281 279 303 287 241 217 208 191 152 97 49 32 20 16 13 4 2 356 356 339 299 294 252 243 230 232 227 218 210
288 306 8 267 275 270 288 285 298 312 310 285 290 285 273 215 262 247 222 274 241 235 216 193 180 36 3 5 5 7 0 357 356 349 344 345 272 270 264 250 230 221 226 205
282 27 284 276 283 295 293 16 303 287 293 295 320 292 284 208 246 223 259 236 218 207 204 214 240 330 356 356 353 353 352 353 354 351 341 341 315 289 283 260 252 228 221 226
12 306 306 288 345 316 307 326 295 291 287 288 271 237 110 181 258 249 263 219 228 225 232 241 252 308 323 334 341 337 337 342 339 341 340 325 317 320 304 273 269 251 236 222
298 315 277 336 55 302 319 283 284 281 267 256 277 242 283 294 297 266 225 236 230 243 235 248 257 279 310 326 332 330 331 333 332 329 328 320 309 305 303 298 282 253 246 226
313 171 145 265 270 271 258 302 307 274 213 272 106 260 259 287 275 264 262 267 251 259 260 256 275 297 314 316 326 323 329 324 327 321 311 311 308 298 287 279 272 263 249 239
338 239 105 137 305 315 290 294 261 289 304 307 304 266 13 356 300 269 258 262 261 289 287 294 292 289 305 313 314 316 317 316 317 318 314 316 308 299 295 279 285 277 253 244
313 257 257 274 297 266 93 247 2 302 276 268 265 259 212 232 262 264 261 253 273 284 320 308 311 302 302 308 306 311 310 308 308 310 310 309 303 297 291 288 279 273 258 258
323 293 285 340 279 238 254 352 241 205 275 285 284 311 298 313 279 266 300 294 329 309 294 304 306 304 299 303 304 305 308 305 303 304 300 301 301 291 286 287 281 276 267 248
297 291 276 263 247 284 228 222 221 290 276 272 289 279 345 327 302 294 284 344 310 313 326 312 308 303 307 311 309 311 308 304 301 301 297 292 291 291 286 286 283 273 264 243
359 287 284 288 288 299 293 281 286 263 275 268 267 273 295 305 4 334 333 332 311 322 310 307 305 306 308 310 311 309 308 304 301 303 298 288 288 290 283 284 285 275 262 249
360 288 306 293 155 183 233 269 262 270 280 275 272 278 298 300 225 283 295 314 324 315 308 308 301 309 303 309 308 305 304 308 309 302 294 286 288 289 282 284 286 276 265 236
286 254 249 271 293 305 296 292 287 282 271 275 273 288 300 308 312 315 338 336 314 307 306 308 306 307 306 311 306 306 308 310 306 298 294 289 290 288 284 286 286 273 265 234
285 274 278 280 292 294 285 288 292 291 292 287 293 291 299 323 337 334 328 313 301 300 304 308 309 311 306 311 309 308 313 305 304 295 291 291 289 285 281 282 285 265 250 227
300 282 293 286 283 286 299 290 286 304 316 309 301 303 308 319 325 328 308 299 304 307 310 309 309 308 310 309 306 310 301 299 298 289 287 288 289 283 278 279 279 253 243 231
280 277 304 287 307 309 289 330 312 312 306 313 302 305 316 330 324 308 315 307 302 304 310 314 313 309 305 304 307 295 295 296 288 286 283 283 282 278 277 278 295 268 235 233
268 280 278 293 300 296 350 342 341 327 309 313 307 314 334 316 312 315 308 291 301 311 315 313 307 299 294 295 291 289 290 288 289 284 279 279 277 272 274 281 285 272 252 233
225 290 297 280 301 291 295 21 84 284 301 299 321 332 320 312 300 292 298 307 312 314 311 302 297 294 292 288 291 289 286 282 282 277 275 276 274 272 269 284 272 293 271 102
217 243 254 284 291 302 318 29 343 325 294 19 342 315 302 305 294 298 308 314 311 303 299 303 296 298 297 298 290 284 279 278 274 271 270 270 269 267 268 307 186 71 79 80
305 320 290 294 296 294 30 352 334 287 329 327 313 300 302 301 292 303 307 307 310 309 299 289 293 296 293 290 285 271 272 268 268 265 267 267 258 255 256 130 115 110 91 85
301 298 303 302 286 291 342 339 287 295 304 295 297 306 303 305 305 308 311 314 310 300 303 308 292 286 287 285 282 275 267 266 266 267 266 262 247 242 146 135 118 110 108 99
281 299 295 283 294 308 336 312 311 299 307 310 314 314 316 308 308 309 304 305 308 307 300 296 291 289 284 279 272 268 265 264 265 263 257 249 240 214 141 139 128 123 123 121
291 310 251 292 274 320 316 310 306 324 316 319 318 314 313 306 300 304 306 303 299 299 300 299 295 290 286 276 268 262 265 265 267 262 250 227 230 132 149 134 135 139 146 139
308 306 264 277 296 312 291 311 318 330 324 319 317 313 301 302 305 307 303 302 299 299 296 295 291 285 281 277 265 260 254 252 249 247 237 216 140 134 102 75 120 136 136 138
274 320 274 267 288 284 295 306 332 330 328 321 318 310 307 307 306 303 301 304 302 300 300 297 292 286 281 274 264 257 244 240 231 233 196 191 120 128 119 106 84 55 70 76